When you browse on this site, cookies collect data to enhance your experience and personalize the content and advertising you see.
Visit our Privacy Policy to learn more. By continuing to use the site, you agree to this use of cookies and data.
  • In Hungary
  • List of Countries
  • For 7 days
  • Water Temperature
  • Satellite Maps
  • Weather Map
  • News
  • Weather Widgets
  • user-avatar
    Login

    Hourly Weather Montgomery Village

    Today, 16 July, Tuesday

    Time Temperature Precipitation Wind Pressure Humidity
    00:00 +23°C° 0 mm 0 mps 751 mmHg 72%
    01:00 +23°C° 0 mm 0 mps 752 mmHg 78%
    02:00 +22°C° 0 mm 0 mps 751 mmHg 79%
    03:00 +22°C° 0 mm 0 mps 751 mmHg 80%
    04:00 +22°C° 0 mm 0 mps 751 mmHg 81%
    05:00 +23°C° 0 mm 0 mps 751 mmHg 79%
    06:00 +23°C° 0 mm 0 mps 752 mmHg 77%
    07:00 +24°C° 0 mm 0 mps 752 mmHg 75%
    08:00 +26°C° 0 mm 0 mps 752 mmHg 68%
    09:00 +28°C° 0 mm 0 mps 752 mmHg 61%
    10:00 +30°C° 0 mm 0 mps 752 mmHg 54%
    11:00 +32°C° 0 mm 1 mps 751 mmHg 52%
    12:00 +33°C° 0 mm 1 mps 751 mmHg 50%
    13:00 +34°C° 0 mm 1 mps 751 mmHg 49%
    14:00 +34°C° 0 mm 1 mps 751 mmHg 49%
    15:00 +34°C° 0 mm 1 mps 751 mmHg 50%
    16:00 +35°C° 0 mm 1 mps 750 mmHg 50%
    17:00 +31°C° 2.7 mm 2 mps 750 mmHg 62%
    18:00 +28°C° 2.7 mm 2 mps 750 mmHg 74%
    19:00 +25°C° 2.7 mm 3 mps 750 mmHg 87%
    20:00 +26°C° 0.2 mm 3 mps 750 mmHg 84%
    21:00 +26°C° 0.2 mm 2 mps 751 mmHg 82%
    22:00 +26°C° 0.2 mm 2 mps 751 mmHg 80%
    23:00 +26°C° 0 mm 2 mps 751 mmHg 81%

    Tomorrow, 17 July, Wednesday

    Time Temperature Precipitation Wind Pressure Humidity
    00:00 +26°C° 0 mm 2 mps 751 mmHg 83%
    01:00 +25°C° 0 mm 2 mps 750 mmHg 84%
    02:00 +25°C° 0 mm 2 mps 750 mmHg 85%
    03:00 +25°C° 0 mm 2 mps 750 mmHg 85%
    04:00 +25°C° 0 mm 2 mps 750 mmHg 85%
    05:00 +25°C° 0 mm 2 mps 750 mmHg 85%
    06:00 +26°C° 0 mm 2 mps 750 mmHg 84%
    07:00 +26°C° 0 mm 2 mps 750 mmHg 84%
    08:00 +28°C° 0 mm 2 mps 750 mmHg 77%
    09:00 +30°C° 0 mm 2 mps 750 mmHg 70%
    10:00 +32°C° 0 mm 2 mps 750 mmHg 64%
    11:00 +34°C° 0 mm 2 mps 749 mmHg 58%
    12:00 +35°C° 0 mm 2 mps 749 mmHg 53%
    13:00 +37°C° 0 mm 3 mps 749 mmHg 48%
    14:00 +36°C° 0.1 mm 3 mps 748 mmHg 51%
    15:00 +35°C° 0.1 mm 3 mps 748 mmHg 54%
    16:00 +35°C° 0.1 mm 3 mps 747 mmHg 58%
    17:00 +34°C° 0 mm 2 mps 747 mmHg 62%
    18:00 +32°C° 0 mm 1 mps 747 mmHg 65%
    19:00 +31°C° 0 mm 1 mps 747 mmHg 69%
    20:00 +29°C° 1.1 mm 1 mps 748 mmHg 75%
    21:00 +28°C° 1.1 mm 1 mps 748 mmHg 81%
    22:00 +26°C° 1.1 mm 2 mps 748 mmHg 87%
    23:00 +26°C° 0.2 mm 1 mps 748 mmHg 86%

    Day after tomorrow, 18 July, Thursday

    Time Temperature Precipitation Wind Pressure Humidity
    00:00 +26°C° 0.2 mm 1 mps 748 mmHg 85%
    01:00 +26°C° 0.2 mm 1 mps 747 mmHg 85%
    02:00 +25°C° 0 mm 1 mps 747 mmHg 86%
    03:00 +25°C° 0 mm 1 mps 747 mmHg 88%
    04:00 +24°C° 0 mm 1 mps 747 mmHg 89%
    05:00 +25°C° 0 mm 1 mps 747 mmHg 87%
    06:00 +26°C° 0 mm 1 mps 748 mmHg 85%
    07:00 +26°C° 0 mm 1 mps 748 mmHg 83%
    08:00 +28°C° 0 mm 1 mps 748 mmHg 78%
    09:00 +29°C° 0 mm 1 mps 748 mmHg 73%
    10:00 +31°C° 0 mm 2 mps 748 mmHg 68%
    11:00 +31°C° 0.5 mm 2 mps 748 mmHg 67%
    12:00 +32°C° 0.5 mm 2 mps 748 mmHg 65%
    13:00 +34°C° 0.5 mm 2 mps 747 mmHg 64%
    14:00 +34°C° 0.2 mm 2 mps 747 mmHg 63%
    15:00 +34°C° 0.2 mm 2 mps 747 mmHg 62%
    16:00 +33°C° 0.2 mm 1 mps 747 mmHg 60%
    17:00 +32°C° 0.1 mm 1 mps 747 mmHg 65%
    18:00 +32°C° 0.1 mm 1 mps 747 mmHg 69%
    19:00 +31°C° 0.1 mm 1 mps 747 mmHg 73%
    20:00 +30°C° 0 mm 1 mps 748 mmHg 76%
    21:00 +29°C° 0 mm 1 mps 748 mmHg 78%
    22:00 +28°C° 0 mm 1 mps 748 mmHg 81%
    23:00 +28°C° 0 mm 1 mps 748 mmHg 82%

    19 July, Friday

    Time Temperature Precipitation Wind Pressure Humidity
    00:00 +25°C° 0 mm 0 mps 748 mmHg 83%
    01:00 +25°C° 0 mm 0 mps 748 mmHg 84%
    02:00 +25°C° 0 mm 0 mps 748 mmHg 85%
    03:00 +24°C° 0 mm 0 mps 748 mmHg 86%
    04:00 +24°C° 0 mm 0 mps 748 mmHg 86%
    05:00 +25°C° 0 mm 0 mps 748 mmHg 85%
    06:00 +26°C° 0 mm 0 mps 749 mmHg 83%
    07:00 +26°C° 0 mm 0 mps 749 mmHg 81%
    08:00 +28°C° 0 mm 0 mps 749 mmHg 74%
    09:00 +30°C° 0 mm 0 mps 749 mmHg 67%
    10:00 +32°C° 0 mm 0 mps 749 mmHg 60%
    11:00 +35°C° 0 mm 1 mps 749 mmHg 57%
    12:00 +36°C° 0 mm 1 mps 749 mmHg 53%
    13:00 +37°C° 0 mm 1 mps 748 mmHg 50%
    14:00 +37°C° 0 mm 1 mps 748 mmHg 49%
    15:00 +37°C° 0 mm 1 mps 748 mmHg 49%
    16:00 +37°C° 0 mm 1 mps 748 mmHg 49%
    17:00 +35°C° 0 mm 1 mps 748 mmHg 53%
    18:00 +34°C° 0 mm 1 mps 748 mmHg 57%
    19:00 +33°C° 0 mm 1 mps 748 mmHg 61%
    20:00 +32°C° 0 mm 1 mps 748 mmHg 63%
    21:00 +31°C° 0 mm 1 mps 748 mmHg 65%
    22:00 +30°C° 0 mm 1 mps 748 mmHg 67%
    23:00 +29°C° 0 mm 1 mps 748 mmHg 70%

    20 July, Saturday

    Time Temperature Precipitation Wind Pressure Humidity
    00:00 +29°C° 0 mm 1 mps 748 mmHg 72%
    01:00 +28°C° 0 mm 1 mps 747 mmHg 75%
    02:00 +28°C° 0 mm 1 mps 747 mmHg 76%
    03:00 +28°C° 0 mm 1 mps 747 mmHg 77%
    04:00 +28°C° 0 mm 1 mps 747 mmHg 78%
    05:00 +28°C° 0 mm 1 mps 747 mmHg 77%
    06:00 +29°C° 0 mm 1 mps 747 mmHg 76%
    07:00 +29°C° 0 mm 1 mps 747 mmHg 75%
    08:00 +31°C° 0 mm 1 mps 747 mmHg 69%
    09:00 +34°C° 0 mm 2 mps 748 mmHg 64%
    10:00 +35°C° 0 mm 2 mps 748 mmHg 58%
    11:00 +36°C° 0.1 mm 2 mps 747 mmHg 55%
    12:00 +37°C° 0.1 mm 2 mps 747 mmHg 52%
    13:00 +38°C° 0.1 mm 2 mps 746 mmHg 49%
    14:00 +38°C° 0 mm 2 mps 746 mmHg 49%
    15:00 +38°C° 0 mm 2 mps 746 mmHg 49%
    16:00 +38°C° 0 mm 2 mps 745 mmHg 48%
    17:00 +37°C° 0 mm 2 mps 745 mmHg 53%
    18:00 +36°C° 0 mm 2 mps 745 mmHg 57%
    19:00 +34°C° 0 mm 2 mps 745 mmHg 62%
    20:00 +34°C° 0 mm 2 mps 745 mmHg 63%
    21:00 +32°C° 0 mm 2 mps 745 mmHg 64%
    22:00 +31°C° 0 mm 3 mps 745 mmHg 66%
    23:00 +30°C° 0 mm 2 mps 745 mmHg 68%

    21 July, Sunday

    Time Temperature Precipitation Wind Pressure Humidity
    00:00 +30°C° 0 mm 2 mps 745 mmHg 70%
    01:00 +29°C° 0 mm 2 mps 745 mmHg 72%
    02:00 +29°C° 0 mm 2 mps 745 mmHg 73%
    03:00 +28°C° 0 mm 2 mps 745 mmHg 75%
    04:00 +28°C° 0 mm 2 mps 745 mmHg 76%
    05:00 +28°C° 0 mm 2 mps 745 mmHg 76%
    06:00 +28°C° 0 mm 3 mps 746 mmHg 76%
    07:00 +29°C° 0 mm 3 mps 746 mmHg 75%
    08:00 +30°C° 0 mm 3 mps 746 mmHg 72%
    09:00 +31°C° 0 mm 3 mps 746 mmHg 69%
    10:00 +33°C° 0 mm 3 mps 747 mmHg 66%
    11:00 +34°C° 0 mm 3 mps 746 mmHg 63%
    12:00 +35°C° 0 mm 3 mps 746 mmHg 60%
    13:00 +36°C° 0 mm 3 mps 746 mmHg 57%
    14:00 +36°C° 0 mm 2 mps 745 mmHg 55%
    15:00 +36°C° 0 mm 2 mps 745 mmHg 53%
    16:00 +36°C° 0 mm 1 mps 745 mmHg 52%
    17:00 +34°C° 0.1 mm 1 mps 745 mmHg 56%
    18:00 +33°C° 0.1 mm 1 mps 745 mmHg 61%
    19:00 +32°C° 0.1 mm 1 mps 745 mmHg 65%
    20:00 +29°C° 1.6 mm 2 mps 745 mmHg 71%
    21:00 +27°C° 1.6 mm 2 mps 745 mmHg 77%
    22:00 +25°C° 1.6 mm 2 mps 746 mmHg 83%
    23:00 +25°C° 0.3 mm 2 mps 745 mmHg 82%
    Show more